When you browse on this site, cookies collect data to enhance your experience and personalize the content and advertising you see.
Visit our Privacy Policy to learn more. By continuing to use the site, you agree to this use of cookies and data.
  • In Österreich
  • Länderverzeichnis
  • Für 7 Tage
  • Wassertemperatur
  • Wetterkarte
  • News
  • Widgets
  • user-avatar
    Anmelden

    Stündliche Wetter Lyuban

    Heute, 15 September, Sonntag

    Zeit Temperatur Niederschläge Wind Luftdruck Luftfeuchtigkeit
    00:00 +9°C° 0 mm 3 m/S 758 mmHg 87%
    01:00 +9°C° 0 mm 2 m/S 758 mmHg 89%
    02:00 +8°C° 0 mm 2 m/S 758 mmHg 91%
    03:00 +8°C° 0 mm 2 m/S 758 mmHg 92%
    04:00 +8°C° 0 mm 2 m/S 757 mmHg 92%
    05:00 +7°C° 0 mm 2 m/S 757 mmHg 93%
    06:00 +9°C° 0 mm 3 m/S 757 mmHg 87%
    07:00 +10°C° 0 mm 3 m/S 757 mmHg 81%
    08:00 +11°C° 0 mm 3 m/S 757 mmHg 75%
    09:00 +13°C° 0 mm 4 m/S 756 mmHg 69%
    10:00 +14°C° 0 mm 5 m/S 756 mmHg 63%
    11:00 +16°C° 0 mm 5 m/S 755 mmHg 57%
    12:00 +16°C° 0 mm 6 m/S 755 mmHg 55%
    13:00 +17°C° 0 mm 6 m/S 754 mmHg 53%
    14:00 +17°C° 0 mm 6 m/S 753 mmHg 50%
    15:00 +17°C° 0 mm 6 m/S 752 mmHg 52%
    16:00 +16°C° 0 mm 5 m/S 752 mmHg 53%
    17:00 +16°C° 0 mm 5 m/S 751 mmHg 54%
    18:00 +15°C° 0 mm 5 m/S 750 mmHg 55%
    19:00 +15°C° 0 mm 5 m/S 750 mmHg 56%
    20:00 +14°C° 0 mm 5 m/S 750 mmHg 57%
    21:00 +14°C° 0 mm 5 m/S 749 mmHg 58%
    22:00 +14°C° 0 mm 5 m/S 748 mmHg 58%
    23:00 +14°C° 0 mm 6 m/S 748 mmHg 59%

    Morgen, 16 September, Montag

    Zeit Temperatur Niederschläge Wind Luftdruck Luftfeuchtigkeit
    00:00 +14°C° 0 mm 5 m/S 748 mmHg 61%
    01:00 +14°C° 0 mm 5 m/S 747 mmHg 63%
    02:00 +14°C° 0 mm 5 m/S 747 mmHg 66%
    03:00 +14°C° 0 mm 5 m/S 747 mmHg 65%
    04:00 +14°C° 0 mm 5 m/S 747 mmHg 65%
    05:00 +15°C° 0 mm 5 m/S 746 mmHg 65%
    06:00 +15°C° 0 mm 5 m/S 746 mmHg 64%
    07:00 +15°C° 0 mm 6 m/S 747 mmHg 63%
    08:00 +15°C° 0 mm 6 m/S 747 mmHg 63%
    09:00 +16°C° 0 mm 7 m/S 747 mmHg 60%
    10:00 +16°C° 0 mm 7 m/S 747 mmHg 57%
    11:00 +17°C° 0 mm 8 m/S 747 mmHg 54%
    12:00 +17°C° 0 mm 8 m/S 746 mmHg 51%
    13:00 +18°C° 0 mm 8 m/S 746 mmHg 49%
    14:00 +18°C° 0 mm 7 m/S 746 mmHg 46%
    15:00 +17°C° 0 mm 7 m/S 746 mmHg 50%
    16:00 +16°C° 0 mm 6 m/S 746 mmHg 53%
    17:00 +15°C° 0 mm 5 m/S 746 mmHg 57%
    18:00 +13°C° 0 mm 4 m/S 746 mmHg 62%
    19:00 +12°C° 0 mm 4 m/S 746 mmHg 67%
    20:00 +10°C° 0 mm 3 m/S 746 mmHg 72%
    21:00 +9°C° 0 mm 3 m/S 745 mmHg 75%
    22:00 +9°C° 0 mm 3 m/S 745 mmHg 79%
    23:00 +8°C° 0 mm 3 m/S 745 mmHg 82%

    übermorgen, 17 September, Dienstag

    Zeit Temperatur Niederschläge Wind Luftdruck Luftfeuchtigkeit
    00:00 +8°C° 0 mm 3 m/S 745 mmHg 84%
    01:00 +7°C° 0 mm 3 m/S 745 mmHg 86%
    02:00 +7°C° 0 mm 3 m/S 744 mmHg 88%
    03:00 +7°C° 0 mm 3 m/S 744 mmHg 88%
    04:00 +7°C° 0 mm 3 m/S 744 mmHg 88%
    05:00 +7°C° 0 mm 3 m/S 744 mmHg 88%
    06:00 +7°C° 0 mm 4 m/S 744 mmHg 81%
    07:00 +8°C° 0 mm 5 m/S 744 mmHg 75%
    08:00 +9°C° 0 mm 6 m/S 743 mmHg 69%
    09:00 +10°C° 0 mm 6 m/S 743 mmHg 65%
    10:00 +11°C° 0 mm 6 m/S 743 mmHg 61%
    11:00 +14°C° 0 mm 7 m/S 743 mmHg 57%
    12:00 +14°C° 0.1 mm 7 m/S 743 mmHg 56%
    13:00 +14°C° 0.1 mm 7 m/S 742 mmHg 54%
    14:00 +15°C° 0.1 mm 7 m/S 742 mmHg 53%
    15:00 +14°C° 0.3 mm 7 m/S 742 mmHg 57%
    16:00 +13°C° 0.3 mm 6 m/S 741 mmHg 62%
    17:00 +13°C° 0.3 mm 6 m/S 741 mmHg 66%
    18:00 +11°C° 0.2 mm 6 m/S 741 mmHg 72%
    19:00 +9°C° 0.2 mm 5 m/S 741 mmHg 78%
    20:00 +8°C° 0.2 mm 5 m/S 741 mmHg 84%
    21:00 +8°C° 0.1 mm 5 m/S 741 mmHg 85%
    22:00 +7°C° 0.1 mm 5 m/S 741 mmHg 86%
    23:00 +6°C° 0.1 mm 5 m/S 740 mmHg 88%

    18 September, Mittwoch

    Zeit Temperatur Niederschläge Wind Luftdruck Luftfeuchtigkeit
    00:00 +6°C° 0.2 mm 5 m/S 740 mmHg 88%
    01:00 +6°C° 0.2 mm 5 m/S 740 mmHg 88%
    02:00 +4°C° 0.2 mm 6 m/S 740 mmHg 88%
    03:00 +4°C° 0 mm 6 m/S 740 mmHg 88%
    04:00 +4°C° 0 mm 6 m/S 740 mmHg 88%
    05:00 +4°C° 0 mm 6 m/S 741 mmHg 88%
    06:00 +4°C° 0.1 mm 6 m/S 741 mmHg 87%
    07:00 +5°C° 0.1 mm 6 m/S 741 mmHg 86%
    08:00 +5°C° 0.1 mm 6 m/S 742 mmHg 85%
    09:00 +7°C° 0.2 mm 6 m/S 743 mmHg 82%
    10:00 +8°C° 0.2 mm 6 m/S 743 mmHg 78%
    11:00 +9°C° 0.2 mm 6 m/S 744 mmHg 74%
    12:00 +9°C° 0.3 mm 7 m/S 744 mmHg 75%
    13:00 +9°C° 0.3 mm 7 m/S 745 mmHg 75%
    14:00 +9°C° 0.3 mm 7 m/S 745 mmHg 76%
    15:00 +10°C° 0.1 mm 7 m/S 745 mmHg 75%
    16:00 +10°C° 0.1 mm 6 m/S 745 mmHg 75%
    17:00 +10°C° 0.1 mm 6 m/S 745 mmHg 75%
    18:00 +9°C° 0.2 mm 6 m/S 746 mmHg 78%
    19:00 +8°C° 0.2 mm 5 m/S 746 mmHg 81%
    20:00 +7°C° 0.2 mm 4 m/S 747 mmHg 84%
    21:00 +7°C° 0 mm 4 m/S 747 mmHg 86%
    22:00 +6°C° 0 mm 4 m/S 747 mmHg 89%
    23:00 +5°C° 0 mm 4 m/S 747 mmHg 91%

    19 September, Donnerstag

    Zeit Temperatur Niederschläge Wind Luftdruck Luftfeuchtigkeit
    00:00 +6°C° 0 mm 4 m/S 747 mmHg 91%
    01:00 +7°C° 0 mm 4 m/S 748 mmHg 90%
    02:00 +8°C° 0 mm 5 m/S 748 mmHg 90%
    03:00 +7°C° 0 mm 4 m/S 748 mmHg 90%
    04:00 +7°C° 0 mm 4 m/S 748 mmHg 91%
    05:00 +7°C° 0 mm 4 m/S 748 mmHg 91%
    06:00 +7°C° 0 mm 4 m/S 749 mmHg 89%
    07:00 +7°C° 0 mm 4 m/S 749 mmHg 88%
    08:00 +6°C° 0 mm 4 m/S 749 mmHg 86%
    09:00 +8°C° 0 mm 4 m/S 749 mmHg 78%
    10:00 +10°C° 0 mm 4 m/S 750 mmHg 70%
    11:00 +12°C° 0 mm 4 m/S 750 mmHg 62%
    12:00 +12°C° 0.3 mm 4 m/S 750 mmHg 62%
    13:00 +12°C° 0.3 mm 4 m/S 750 mmHg 62%
    14:00 +13°C° 0.3 mm 4 m/S 749 mmHg 63%
    15:00 +12°C° 0.2 mm 4 m/S 749 mmHg 65%
    16:00 +12°C° 0.2 mm 4 m/S 749 mmHg 67%
    17:00 +12°C° 0.2 mm 3 m/S 750 mmHg 69%
    18:00 +10°C° 0.2 mm 3 m/S 750 mmHg 75%
    19:00 +9°C° 0.2 mm 3 m/S 750 mmHg 81%
    20:00 +7°C° 0.2 mm 3 m/S 751 mmHg 87%
    21:00 +7°C° 0 mm 3 m/S 751 mmHg 89%
    22:00 +5°C° 0 mm 3 m/S 751 mmHg 91%
    23:00 +4°C° 0 mm 3 m/S 751 mmHg 93%

    20 September, Freitag

    Zeit Temperatur Niederschläge Wind Luftdruck Luftfeuchtigkeit
    00:00 +4°C° 0 mm 3 m/S 751 mmHg 93%
    01:00 +4°C° 0 mm 3 m/S 751 mmHg 93%
    02:00 +4°C° 0 mm 2 m/S 752 mmHg 92%
    03:00 +4°C° 0 mm 2 m/S 752 mmHg 93%
    04:00 +3°C° 0 mm 2 m/S 752 mmHg 94%
    05:00 +3°C° 0 mm 2 m/S 752 mmHg 94%
    06:00 +4°C° 0 mm 2 m/S 752 mmHg 92%
    07:00 +4°C° 0 mm 2 m/S 752 mmHg 89%
    08:00 +4°C° 0 mm 3 m/S 752 mmHg 86%
    09:00 +7°C° 0.1 mm 3 m/S 753 mmHg 82%
    10:00 +8°C° 0.1 mm 3 m/S 753 mmHg 78%
    11:00 +8°C° 0.1 mm 4 m/S 754 mmHg 73%
    12:00 +8°C° 0.3 mm 4 m/S 754 mmHg 73%
    13:00 +8°C° 0.3 mm 4 m/S 753 mmHg 73%
    14:00 +8°C° 0.3 mm 5 m/S 753 mmHg 72%
    15:00 +10°C° 0.1 mm 4 m/S 753 mmHg 70%
    16:00 +10°C° 0.1 mm 4 m/S 754 mmHg 68%
    17:00 +10°C° 0.1 mm 3 m/S 754 mmHg 66%
    18:00 +8°C° 0 mm 3 m/S 754 mmHg 69%
    19:00 +5°C° 0 mm 3 m/S 755 mmHg 73%
    20:00 +5°C° 0 mm 2 m/S 755 mmHg 76%
    21:00 +4°C° 0 mm 2 m/S 755 mmHg 78%
    22:00 +4°C° 0 mm 2 m/S 755 mmHg 80%
    23:00 +3°C° 0 mm 2 m/S 755 mmHg 82%
    Mehr zeigen